Location: Pagani
(40.7500°N, 14.6167°E)
Time: 21:54:41
(UTC+00:00)

Cosmos 2219 Rocket - Pass Details

Date: 15 May 2026
Orbit: 825 x 846 km, 71.0° (Epoch: 10 June)

Event Time Altitude Azimuth Distance (km) Brightness Sun altitude
Rises 20:16:53 0° 344° (NNW) 3,403 6.5 -19.5°
Reaches altitude 10° 20:19:38 10° 355° (N) 2,468 5.4 -19.8°
Maximum altitude 20:24:36 30° 57° (ENE) 1,461 3.4 -20.4°
Enters shadow 20:26:31 25° 90° (E) 1,651 3.4 -20.7°
